Temp
-4 -3 -3 -3 -3 -3 -4 -3 -4 -2 -4 -3 -3 -3 -2 -2 -2 0 1 4 5 5 5 4 4 3 3 3 3 3 2 1 1 1 1 0 0 -0 -0 -1 -1 -1 -1 -1
-4 -1 -2 -2 -2 -2 -2 -3 -4 -4 -3 -3 -3 -2 -2 -2 -1 1 2 3 4 4 4 3 3 3 3 2 2 2 1 0 0 0 0 -0 -1 -1 -1 -1 -1 -2 -2 -2
-3 -1 -1 -0 -1 -2 -3 -4 -4 -4 -1 -2 -2 -2 -1 -1 1 1 3 4 4 4 3 2 2 2 2 2 1 1 0 0 -0 -0 -0 -1 -1 -1 -1 -2 -2 -2 -3 -3
-3 -2 -1 1 -1 -1 -1 -2 -2 -1 -0 -1 -2 -0 1 1 2 3 3 3 3 2 2 1 1 1 1 0 0 -0 -0 -0 -0 -1 -1 -1 -2 -2 -2 -3 -3 -3 -3 -4
-2 -2 -0 1 -1 -1 -1 -0 1 1 -1 -1 0 1 2 2 3 2 2 2 2 1 1 0 0 0 0 -0 -0 -0 -1 -1 -1 -1 -2 -2 -2 -3 -3 -3 -3 -4 -5 -5
-3 -2 -1 0 1 0 -0 0 -0 1 1 0 1 2 2 3 2 2 1 1 1 0 0 0 1 0 -0 -1 -1 -1 -1 -1 -1 -2 -2 -2 -3 -3 -3 -4 -4 -5 -5 -5
-3 -2 -0 -0 1 0 -0 0 0 -0 0 1 2 2 3 3 3 2 2 1 2 1 1 0 0 -0 -1 -1 -1 -1 -1 -2 -2 -2 -2 -3 -3 -3 -4 -5 -5 -5 -6 -6
-2 -2 -2 0 1 1 1 1 0 1 1 1 2 2 2 2 3 3 3 3 1 0 0 0 -1 -1 -1 -1 -1 -2 -2 -2 -2 -2 -3 -3 -4 -4 -5 -5 -6 -6 -6 -7
-1 1 1 1 1 1 2 2 3 3 1 0 1 1 2 2 2 2 2 2 1 0 0 -0 -1 -1 -1 -2 -2 -2 -2 -2 -3 -3 -3 -4 -5 -5 -6 -6 -6 -6 -7 -7
-0 1 1 1 2 2 2 3 3 3 4 3 2 2 2 1 1 1 1 1 1 1 -0 -0 -1 -1 -1 -2 -2 -2 -2 -3 -3 -4 -5 -5 -6 -6 -6 -6 -7 -7 -7 -8
1 1 1 1 2 2 2 2 3 3 3 2 2 2 2 1 1 1 1 1 0 -0 -1 -1 -1 -2 -2 -2 -2 -3 -3 -4 -4 -5 -5 -6 -6 -6 -7 -7 -7 -8 -8 -9
0 0 0 0 1 1 2 2 3 3 3 2 2 2 2 2 1 1 0 -0 -0 -1 -1 -2 -2 -2 -2 -3 -3 -4 -4 -5 -5 -5 -6 -6 -7 -7 -7 -8 -8 -9 -10 -10
0 -0 0 0 1 1 2 2 2 2 2 2 2 1 1 1 1 0 -0 -1 -1 -1 -2 -2 -2 -3 -3 -3 -4 -4 -5 -5 -5 -6 -6 -7 -7 -8 -8 -9 -10 -10 -10 -10
0 -0 -0 -0 -1 -0 1 0 -1 1 2 1 1 1 0 0 0 -1 -1 -1 -2 -2 -2 -3 -3 -3 -4 -4 -4 -5 -5 -5 -6 -6 -7 -7 -8 -8 -9 -9 -9 -10 -10 -11
0 -0 -1 -1 -0 -0 -0 -1 -1 -1 -2 -1 -0 -0 -1 -1 -1 -1 -1 -2 -2 -3 -3 -3 -3 -3 -4 -4 -5 -5 -6 -6 -7 -7 -7 -8 -8 -9 -10 -10 -10 -10 -11 -12
-0 -1 -1 -1 -1 -1 -1 -0 -1 -1 -0 -1 -1 -1 -1 -1 -2 -2 -2 -2 -3 -3 -3 -3 -3 -4 -4 -5 -5 -6 -6 -7 -7 -7 -8 -8 -9 -10 -10 -10 -11 -11 -12 -12
-1 -1 -1 -2 -1 -1 -1 -1 -2 -2 -1 -1 -2 -2 -2 -2 -2 -3 -3 -3 -3 -3 -3 -4 -4 -5 -5 -6 -6 -6 -7 -7 -7 -8 -9 -9 -10 -10 -10 -11 -11 -12 -13 -13
-1 -1 -1 -1 -1 -0 -1 -1 -1 -2 -2 -2 -3 -3 -3 -3 -3 -3 -3 -3 -3 -4 -4 -4 -5 -5 -6 -6 -6 -7 -7 -8 -8 -9 -10 -10 -10 -11 -11 -12 -12 -13 -13 -13
-0 -0 -1 -1 -0 -0 -0 -1 -2 -2 -3 -3 -3 -3 -4 -4 -4 -4 -4 -4 -4 -4 -4 -5 -5 -6 -6 -6 -7 -7 -8 -8 -9 -10 -10 -11 -11 -12 -12 -13 -13 -13 -13 -14
0 0 0 0 -0 -1 -1 -2 -2 -3 -3 -3 -4 -4 -4 -4 -4 -4 -4 -4 -4 -5 -5 -5 -6 -6 -7 -7 -7 -8 -9 -9 -9 -10 -11 -11 -12 -12 -13 -13 -14 -14 -14 -14
0 -0 -0 -0 -0 -1 -2 -2 -2 -3 -3 -4 -4 -4 -4 -4 -4 -4 -4 -4 -5 -5 -5 -6 -6 -7 -7 -7 -8 -8 -9 -10 -10 -11 -12 -12 -13 -13 -14 -14 -14 -14 -15 -15
-0 -1 -1 -1 -1 -1 -2 -3 -3 -3 -4 -4 -4 -5 -5 -4 -4 -5 -5 -5 -5 -6 -6 -7 -7 -7 -8 -8 -9 -9 -10 -10 -11 -12 -12 -13 -13 -14 -14 -14 -15 -15 -15 -15
-1 -2 -2 -1 -2 -2 -2 -3 -3 -4 -4 -5 -5 -5 -5 -5 -5 -5 -5 -5 -6 -6 -7 -7 -7 -8 -8 -9 -9 -10 -10 -11 -12 -12 -13 -13 -14 -14 -14 -15 -15 -15 -15 -15
-1 -3 -2 -2 -2 -3 -3 -3 -4 -4 -5 -6 -5 -5 -5 -5 -5 -5 -5 -6 -6 -7 -7 -7 -8 -8 -9 -9 -10 -11 -11 -12 -12 -13 -13 -14 -14 -14 -15 -16 -16 -16 -16 -15
-3 -3 -3 -3 -3 -3 -4 -4 -5 -6 -6 -5 -5 -5 -5 -5 -5 -6 -6 -6 -7 -7 -7 -8 -8 -9 -9 -10 -11 -11 -12 -12 -13 -13 -14 -14 -15 -15 -16 -17 -17 -16 -16 -15
-4 -4 -3 -3 -3 -4 -4 -5 -5 -6 -6 -6 -6 -6 -6 -6 -6 -6 -7 -7 -7 -8 -8 -8 -8 -9 -10 -11 -11 -11 -12 -13 -13 -14 -14 -15 -16 -16 -17 -17 -17 -17 -16 -15
-4 -4 -4 -4 -4 -5 -5 -6 -6 -6 -6 -6 -6 -6 -6 -6 -6 -7 -7 -7 -8 -8 -8 -8 -9 -10 -11 -11 -11 -12 -13 -13 -13 -14 -15 -16 -16 -17 -17 -17 -17 -16 -15 -15
Height
2984 2978 2971 2962 2956 2953 2953 2948 2954 2942 2947 2947 2949 2950 2954 2953 2951 2948 2948 2951 2958 2965 2973 2982 2991 3000 3007 3014 3020 3024 3029 3034 3038 3042 3045 3046 3047 3047 3046 3044 3041 3038 3033 3029
2974 2969 2964 2955 2950 2942 2940 2941 2945 2944 2941 2945 2944 2947 2948 2948 2945 2944 2945 2950 2956 2964 2972 2981 2991 2999 3006 3012 3017 3022 3026 3031 3035 3038 3040 3041 3041 3040 3039 3037 3033 3029 3025 3021
2970 2966 2956 2952 2946 2939 2936 2936 2940 2941 2941 2941 2941 2943 2944 2943 2942 2944 2947 2953 2959 2967 2975 2984 2992 3000 3006 3011 3015 3019 3024 3028 3031 3033 3035 3035 3035 3034 3031 3029 3025 3022 3017 3012
2973 2966 2960 2954 2949 2942 2936 2936 2934 2936 2940 2942 2942 2942 2942 2942 2943 2947 2952 2958 2965 2972 2979 2986 2993 2999 3004 3009 3013 3017 3020 3024 3027 3029 3029 3029 3028 3026 3024 3021 3018 3013 3009 3004
2977 2970 2961 2953 2950 2943 2941 2939 2936 2938 2941 2943 2942 2943 2945 2946 2950 2953 2958 2964 2970 2976 2983 2988 2993 2998 3003 3007 3010 3013 3017 3020 3022 3023 3023 3023 3022 3020 3017 3014 3010 3006 3001 2996
2978 2974 2965 2956 2953 2950 2945 2945 2944 2944 2942 2943 2945 2948 2950 2952 2955 2959 2962 2968 2974 2978 2983 2989 2994 2998 3001 3005 3008 3011 3014 3016 3018 3018 3018 3017 3016 3013 3011 3007 3003 3000 2994 2988
2974 2973 2962 2959 2955 2952 2951 2955 2950 2951 2950 2950 2951 2954 2956 2958 2960 2963 2968 2972 2975 2981 2986 2990 2993 2997 3000 3003 3007 3009 3011 3012 3013 3013 3012 3011 3009 3007 3004 3000 2997 2992 2988 2981
2970 2969 2964 2959 2957 2957 2957 2956 2953 2953 2953 2955 2955 2958 2961 2964 2965 2967 2972 2974 2978 2982 2986 2990 2994 2997 3000 3003 3005 3007 3008 3009 3008 3008 3007 3006 3003 3001 2997 2994 2989 2984 2979 2974
2966 2963 2961 2960 2958 2957 2956 2955 2955 2955 2957 2957 2960 2960 2963 2966 2969 2972 2975 2978 2981 2984 2988 2991 2994 2997 3000 3002 3003 3004 3004 3005 3004 3004 3002 3000 2997 2994 2991 2986 2981 2976 2970 2965
2963 2961 2960 2959 2959 2958 2956 2955 2953 2952 2953 2957 2962 2964 2966 2967 2970 2973 2975 2979 2982 2986 2989 2992 2994 2997 2999 3000 3001 3001 3001 3001 3000 2999 2997 2995 2992 2988 2983 2979 2973 2968 2962 2955
2961 2959 2957 2956 2957 2958 2957 2955 2954 2953 2954 2958 2961 2964 2965 2969 2971 2974 2977 2980 2984 2987 2989 2992 2994 2996 2997 2998 2998 2998 2998 2997 2996 2994 2992 2989 2985 2981 2977 2971 2965 2959 2952 2945
2959 2958 2957 2957 2957 2958 2958 2957 2956 2956 2957 2959 2961 2965 2967 2970 2973 2976 2979 2982 2985 2987 2989 2991 2993 2994 2995 2996 2996 2995 2995 2993 2991 2989 2986 2983 2980 2975 2970 2964 2958 2951 2945 2937
2956 2956 2957 2957 2957 2957 2957 2958 2958 2958 2959 2961 2962 2966 2968 2971 2974 2977 2980 2982 2985 2987 2989 2990 2992 2993 2993 2993 2993 2991 2990 2988 2986 2984 2981 2978 2974 2970 2966 2961 2953 2945 2937 2930
2952 2952 2954 2956 2956 2957 2957 2957 2958 2961 2962 2963 2966 2967 2971 2973 2975 2978 2980 2983 2985 2986 2988 2989 2990 2990 2990 2990 2989 2988 2986 2984 2982 2979 2976 2971 2967 2962 2956 2950 2945 2940 2932 2923
2947 2948 2950 2952 2952 2953 2955 2957 2959 2959 2962 2965 2967 2970 2972 2975 2977 2979 2980 2982 2983 2985 2986 2987 2988 2988 2987 2987 2986 2984 2983 2980 2977 2973 2970 2965 2960 2954 2948 2942 2935 2928 2922 2916
2944 2945 2948 2949 2950 2951 2954 2955 2959 2962 2964 2967 2969 2970 2973 2975 2977 2978 2980 2981 2983 2984 2985 2985 2986 2985 2985 2984 2982 2980 2978 2975 2972 2968 2963 2958 2952 2947 2941 2934 2928 2921 2913 2906
2940 2944 2945 2948 2949 2951 2953 2955 2958 2962 2965 2968 2969 2971 2973 2975 2976 2978 2979 2981 2982 2983 2984 2984 2984 2983 2982 2980 2978 2976 2973 2970 2966 2961 2957 2951 2946 2939 2933 2927 2920 2913 2906 2898
2941 2943 2945 2947 2950 2952 2955 2957 2960 2964 2966 2968 2970 2972 2973 2975 2976 2978 2979 2981 2982 2982 2982 2982 2981 2980 2978 2976 2974 2971 2968 2964 2960 2956 2950 2944 2938 2932 2926 2919 2912 2905 2899 2892
2943 2944 2946 2948 2951 2954 2956 2958 2961 2964 2966 2969 2970 2972 2973 2974 2976 2978 2979 2980 2980 2980 2980 2979 2978 2976 2975 2972 2969 2966 2963 2959 2954 2948 2943 2938 2932 2925 2919 2912 2905 2899 2892 2886
2942 2944 2946 2948 2951 2953 2956 2958 2960 2963 2966 2967 2969 2971 2972 2974 2976 2977 2978 2978 2978 2978 2977 2976 2975 2973 2970 2967 2964 2961 2957 2952 2947 2942 2936 2931 2925 2918 2911 2904 2898 2892 2886 2881
2940 2942 2945 2947 2949 2951 2954 2958 2960 2962 2964 2966 2968 2970 2972 2973 2974 2975 2976 2976 2976 2975 2974 2972 2971 2969 2966 2963 2959 2955 2951 2946 2941 2935 2929 2923 2917 2910 2904 2898 2891 2886 2881 2876
2936 2939 2942 2945 2947 2950 2952 2955 2958 2960 2963 2965 2967 2969 2971 2972 2973 2974 2974 2974 2973 2972 2971 2969 2967 2964 2961 2957 2953 2949 2945 2940 2934 2928 2921 2915 2908 2903 2897 2891 2885 2880 2875 2871
2932 2935 2939 2942 2945 2947 2950 2952 2955 2958 2961 2963 2966 2968 2969 2970 2971 2972 2971 2971 2970 2968 2967 2965 2962 2959 2956 2952 2948 2944 2939 2933 2927 2921 2914 2907 2901 2896 2890 2884 2879 2874 2870 2867
2929 2932 2936 2939 2942 2945 2948 2950 2953 2956 2958 2961 2964 2966 2968 2969 2969 2969 2969 2968 2966 2965 2963 2961 2958 2954 2951 2947 2943 2938 2932 2927 2920 2913 2906 2901 2895 2889 2883 2878 2873 2869 2865 2862
2926 2930 2934 2937 2940 2942 2946 2949 2951 2954 2957 2960 2963 2964 2966 2967 2967 2966 2965 2964 2963 2961 2959 2956 2953 2950 2946 2942 2937 2931 2925 2919 2913 2907 2901 2894 2888 2882 2877 2871 2867 2863 2861 2859
2926 2929 2932 2935 2938 2941 2944 2947 2950 2953 2956 2959 2961 2962 2964 2964 2964 2963 2962 2961 2959 2957 2955 2952 2949 2945 2941 2936 2930 2925 2919 2913 2906 2900 2894 2888 2882 2876 2872 2867 2863 2860 2858 2858
2924 2927 2930 2933 2936 2940 2942 2946 2949 2952 2955 2957 2959 2960 2961 2961 2960 2960 2959 2958 2956 2954 2951 2947 2943 2939 2935 2930 2924 2918 2912 2906 2900 2894 2888 2882 2877 2872 2867 2863 2861 2859 2859 2858
Wind_Speed
35 40 43 45 47 42 36 46 25 40 34 29 24 23 12 24 22 16 11 21 25 25 29 34 37 34 31 26 25 25 25 25 25 24 24 25 25 26 28 31 32 33 36 39
40 28 27 38 26 25 17 24 36 34 38 24 21 14 14 13 16 6 15 22 25 26 29 32 31 28 25 24 25 24 24 24 22 23 24 25 25 28 30 31 32 34 37 38
16 28 30 9 29 27 13 14 13 29 10 7 5 9 9 6 7 13 23 26 27 28 28 26 24 21 21 22 21 22 22 21 22 22 23 25 27 29 30 30 32 35 36 37
19 24 4 17 25 23 14 10 12 11 3 1 7 6 4 8 17 21 25 26 27 27 25 22 20 20 20 20 20 19 19 19 21 22 24 25 27 27 28 31 33 34 35 36
6 14 21 10 27 25 20 23 6 4 1 6 10 13 10 16 22 24 24 25 23 22 20 18 18 19 19 18 17 17 18 20 21 22 22 23 24 26 29 30 32 33 35 37
10 5 4 11 19 16 14 17 19 15 15 16 18 17 19 22 25 25 26 22 21 20 18 16 16 17 16 15 15 16 17 17 18 18 20 22 24 26 28 30 30 32 35 38
21 7 13 13 14 11 9 1 8 10 15 16 18 19 21 19 23 24 22 20 19 17 14 14 14 14 13 14 14 13 13 14 15 18 20 21 24 26 27 29 32 33 36 38
8 5 7 9 9 9 9 3 1 11 8 9 14 19 14 14 16 18 12 12 17 17 16 14 13 11 11 11 10 11 12 13 16 18 20 22 24 25 27 30 33 35 37 38
7 3 6 5 7 9 9 8 4 9 20 14 11 15 7 10 11 11 12 12 13 14 11 11 10 10 9 9 9 10 11 14 16 18 20 22 23 26 29 32 34 37 39 40
8 2 7 9 4 6 8 6 10 2 8 14 17 13 12 9 16 13 12 11 10 11 11 8 8 9 9 8 9 11 13 14 16 18 19 21 24 27 30 33 36 38 41 42
5 6 10 11 6 3 2 4 7 4 10 18 17 12 17 17 16 14 12 12 11 10 9 9 8 7 8 9 10 11 13 14 16 17 20 23 26 29 31 35 38 40 43 45
5 4 4 2 6 5 4 2 3 6 10 14 15 12 13 13 13 12 11 11 10 11 10 8 7 8 8 9 10 11 13 14 16 19 22 25 27 30 33 35 38 41 43 47
12 10 6 3 7 6 6 10 7 7 9 11 13 11 12 11 13 12 12 12 11 9 8 8 7 7 7 8 9 11 13 16 18 21 24 26 29 31 31 32 36 40 44 46
13 14 12 9 10 9 9 5 11 10 12 12 11 14 13 12 13 14 12 10 9 8 7 6 5 5 6 8 11 13 15 17 20 23 25 28 30 33 35 38 39 39 42 44
12 13 12 10 15 14 11 10 8 13 12 14 17 15 15 11 10 9 9 8 8 6 3 2 3 5 7 10 12 14 16 19 22 24 27 30 32 34 36 39 42 44 44 41
8 14 12 8 6 15 9 9 13 13 14 14 13 12 10 9 8 8 8 7 5 2 1 3 5 7 9 11 13 16 18 20 23 26 29 31 33 35 38 41 43 43 42 41
13 13 12 8 7 10 8 15 18 12 11 11 10 9 7 6 6 6 5 4 2 2 2 3 6 8 11 13 15 18 20 23 25 28 30 32 35 38 40 42 42 40 39 39
13 15 11 11 12 10 12 14 15 13 11 11 11 4 4 7 7 6 4 4 3 1 3 6 8 11 13 15 17 19 22 25 27 29 31 34 37 39 41 41 39 38 38 37
11 14 14 13 14 13 14 14 16 15 14 11 12 3 6 8 7 5 5 3 1 3 6 9 10 12 14 16 19 21 24 27 29 32 34 36 38 40 40 38 36 37 37 35
13 14 15 15 16 15 16 18 17 17 16 15 9 6 7 8 6 5 3 0 3 6 9 10 12 13 16 18 21 24 26 29 32 34 36 37 39 39 37 36 36 36 35 33
16 16 16 15 15 17 18 15 16 18 19 12 9 10 9 7 6 4 1 3 6 9 10 11 13 16 19 21 24 27 29 31 33 36 37 38 38 36 35 35 36 35 33 28
17 17 17 17 16 17 19 18 18 17 14 10 10 11 9 7 5 2 3 6 9 10 11 13 16 18 21 24 27 28 30 33 35 37 39 39 37 35 35 35 34 32 29 25
16 18 18 16 17 19 20 21 21 18 17 16 13 10 9 6 2 3 6 8 9 10 12 15 18 21 24 26 28 30 32 35 37 39 38 36 35 36 36 34 33 29 26 22
16 18 19 19 20 22 19 20 22 16 15 15 13 11 8 4 3 6 7 8 10 12 15 17 20 23 25 27 29 32 34 37 39 37 35 36 36 36 35 33 29 27 23 17
17 19 21 21 21 22 20 19 16 15 17 15 12 10 6 4 5 7 8 9 11 14 17 20 23 25 27 29 32 34 37 38 35 35 36 36 35 34 32 28 27 22 14 7
17 18 20 21 21 21 20 15 14 18 16 14 12 8 5 5 6 7 9 11 13 16 19 23 25 27 29 31 34 37 36 34 35 36 36 35 33 31 27 25 20 13 5 2
19 19 19 20 20 22 19 20 19 17 16 14 11 7 5 6 8 9 10 12 15 19 22 25 26 28 30 33 35 34 34 36 36 36 34 32 29 26 22 17 11 5 3 4
Wind_Direction
284 294 302 297 293 296 255 257 229 258 258 281 285 289 274 279 301 298 186 178 185 190 192 190 190 191 196 204 212 214 215 217 221 228 238 247 258 269 278 284 292 296 301 303
297 315 312 305 322 315 276 255 252 265 273 296 269 275 292 285 293 207 154 154 160 168 174 175 180 187 196 203 209 211 215 218 226 236 245 256 267 275 281 288 293 298 301 305
287 318 327 342 344 346 295 263 243 245 297 327 254 246 269 261 180 152 140 141 144 147 151 159 170 182 195 203 208 211 215 222 233 244 256 265 272 278 285 291 295 299 304 308
290 329 305 337 351 5 10 335 274 272 288 0 9 39 83 137 136 132 134 136 140 144 149 158 171 184 194 200 202 207 217 230 243 253 261 269 275 282 288 292 297 303 308 310
282 309 299 358 354 357 359 35 8 117 56 72 69 79 103 125 131 132 131 133 136 140 150 163 174 183 189 192 199 211 226 238 250 259 266 272 278 285 289 297 304 308 309 311
274 293 287 332 356 359 8 47 61 71 76 88 90 87 112 127 128 131 131 135 141 147 154 166 177 179 184 193 207 223 236 246 255 261 268 276 283 291 299 304 307 309 312 316
244 267 278 312 360 0 36 64 52 79 92 103 104 91 110 125 130 132 135 140 142 147 155 167 172 179 187 201 216 230 242 248 255 265 276 286 293 300 305 306 308 314 315 317
220 242 278 348 5 15 360 9 110 139 105 107 134 127 115 130 139 137 128 150 153 155 161 167 172 183 201 219 222 228 240 256 271 280 287 296 302 304 306 310 313 314 317 318
225 264 294 348 327 339 358 15 322 222 204 199 181 165 154 130 136 136 146 155 161 162 171 175 183 194 207 211 223 245 264 275 282 292 301 302 303 308 311 313 315 316 318 319
273 326 310 270 264 291 347 335 2 13 178 187 185 183 178 170 169 174 163 169 174 179 182 191 199 201 211 233 252 265 276 288 296 299 300 305 310 312 313 315 316 317 318 320
286 314 301 259 241 244 351 27 12 74 140 154 156 153 164 174 171 169 171 173 177 181 183 188 196 215 234 254 267 279 288 295 299 303 309 311 312 313 314 315 316 319 322 325
267 291 332 296 179 227 150 150 142 82 134 151 147 151 152 156 158 164 172 177 184 181 180 192 213 234 250 267 281 293 299 302 308 310 310 310 312 314 316 319 321 322 324 326
253 249 255 253 197 178 144 150 138 145 149 159 155 146 148 163 172 174 169 171 171 179 195 210 223 242 265 284 295 301 308 310 308 308 309 310 313 314 316 318 322 324 324 324
278 244 232 234 192 165 160 218 145 156 152 147 149 153 148 157 162 161 167 174 180 188 196 211 239 271 290 301 307 306 306 306 306 309 312 314 315 318 320 323 325 325 324 324
244 216 217 229 228 189 194 175 162 137 149 154 150 148 145 152 158 161 165 169 175 181 197 243 283 300 305 304 304 306 306 308 312 313 314 317 319 322 324 326 326 326 326 327
208 188 190 223 209 214 177 206 142 161 155 154 151 149 155 159 163 163 166 169 169 182 237 286 296 302 305 307 307 309 312 312 313 316 318 320 322 325 326 326 325 325 327 329
200 217 175 189 165 136 165 166 148 161 164 157 152 147 144 155 164 163 164 168 176 208 257 294 307 312 312 312 313 313 314 316 319 319 321 324 325 326 325 324 325 328 330 331
181 193 156 155 163 154 170 165 156 171 171 165 161 174 232 196 179 176 178 178 190 225 310 322 322 317 316 316 316 317 319 320 320 322 325 325 325 324 325 326 328 329 331 332
175 170 182 165 172 185 188 185 177 177 169 177 187 212 176 176 176 178 176 178 224 334 330 324 320 319 318 318 318 320 321 322 324 325 325 325 325 324 325 327 328 330 331 332
206 201 197 194 189 183 188 187 188 181 187 195 174 179 180 178 180 179 175 202 332 326 325 324 320 319 319 320 323 323 323 326 326 325 325 324 325 326 328 329 330 330 331 331
227 216 212 210 202 193 183 193 194 199 203 191 191 183 182 183 180 178 211 321 331 328 324 321 321 324 324 324 324 326 327 326 325 324 324 325 327 329 329 329 330 330 330 331
221 217 213 208 203 202 193 191 203 198 191 187 187 183 184 183 185 206 326 328 327 325 324 325 326 325 325 327 327 327 326 325 325 325 326 328 329 330 329 329 328 329 330 330
215 207 198 203 205 201 199 195 194 201 208 197 180 186 187 187 203 307 324 322 321 325 327 326 326 326 327 327 327 326 325 326 326 327 328 329 330 329 329 328 328 329 329 329
210 202 200 200 197 199 200 208 199 203 199 177 184 187 186 200 273 312 315 318 325 328 327 326 326 327 327 327 326 326 327 327 328 329 330 330 329 328 328 327 327 326 325 326
192 191 195 197 208 193 198 204 200 200 184 180 185 188 200 241 293 309 315 321 323 324 325 327 327 327 327 328 329 328 328 329 330 330 329 329 329 329 328 327 325 326 325 324
185 189 198 202 201 194 194 190 184 176 178 185 190 198 224 278 299 305 312 317 321 325 328 327 327 329 330 330 330 329 328 330 330 329 329 329 329 329 329 328 328 332 343 41
183 187 195 197 204 188 177 170 175 182 186 190 196 214 260 285 292 302 309 317 325 328 327 327 329 330 331 331 329 330 330 330 329 329 329 330 330 333 335 335 343 9 48 82